Regional Weather Roundup
Issued by NWS State College, PA

Home | Current Version | Previous Version | Graphics & Text | Print | Product List | Glossary On
Versions: 1 2 3 4 5 6 7 8 9 10 11 12 13 14 15 16 17 18 19 20 21 22 23 24 25 26 27 28 29 30 31 32 33 34 35 36 37 38 39 40 41 42 43 44 45 46 47 48 49 50
000
ASUS41 KCTP 281403
RWRCTP

REGIONAL WEATHER ROUNDUP
NATIONAL WEATHER SERVICE STATE COLLEGE PA
1000 AM EDT MON JUL 28 2014

Note: "fair" indicates few or no clouds below 12,000 feet with no
significant weather and/or obstructions to visibility.

* = STATION THAT DOES NOT REPORT PRECIPITATION /E.G. RAIN...SNOW...ETC/
    THUNDER OR FOG.

PAZ002>004-007>009-013>016-020>023-029>032-281500-
WESTERN PENNSYLVANIA

CITY           SKY/WX    TMP DP  RH WIND       PRES   REMARKS
ERIE           CLOUDY    66  60  81 N16G25    29.67R
MEADVILLE      PTSUNNY   64  61  90 W7        29.69R
FRANKLIN*      CLOUDY    63  57  82 W10       29.71R
NEW CASTLE       N/A     64  62  93 W10       29.73R
BEAVER COUNTY  CLOUDY    63  59  88 W9G17     29.73R
BUTLER*        CLOUDY    64  57  77 W14       29.73S
PITTSBURGH INT CLOUDY    65  59  81 W9        29.73S
PITTSBURGH     CLOUDY    64  57  78 W10G20    29.73R
INDIANA*       PTSUNNY   63  59  88 NW9       29.75R
LATROBE        CLOUDY    66  61  82 W12       29.74R
WASHINGTON CO* CLOUDY    64  57  77 W15G21    29.77S
$$

PAZ004>006-010>012-017>019-024>028-033>037-041-042-045-046-049>053-281500-
CENTRAL PENNSYLVANIA

CITY           SKY/WX    TMP DP  RH WIND       PRES   REMARKS
BRADFORD       CLOUDY    62  57  83 W9        29.66R
DUBOIS         CLOUDY    63  59  87 W15       29.68S
CLEARFIELD     CLOUDY    64  57  78 W13G20    29.67S
JOHNSTOWN      CLOUDY    61  56  83 W15G21    29.73R
ALTOONA        LGT RAIN  65  58  78 W12       29.71R
STATE COLLEGE  CLOUDY    64  59  82 W10G16    29.66R
WILLIAMSPORT   PTSUNNY   73  62  68 W17G25    29.57R
SELINSGROVE    PTSUNNY   73  63  70 VRB7      29.61R
FT INDIANTOWN  PTSUNNY   72  72 100 SW9       29.62R
CAPITAL CITY   PTSUNNY   71  64  78 W8        29.62R
HARRISBURG     MOSUNNY   74  64  71 W14       29.61S
YORK           MOSUNNY   73  61  65 W13G23    29.64R
$$

PAZ038>040-043-044-047-048-054-055-060>062-067>071-281500-
EASTERN PENNSYLVANIA

CITY           SKY/WX    TMP DP  RH WIND       PRES   REMARKS
SCRANTON       CLOUDY    67  63  87 SW7       29.58S
MOUNT POCONO   CLOUDY    65  60  84 W13       29.62R
ALLENTOWN      PTSUNNY   74  66  76 W10       29.59S
QUAKERTOWN*    CLOUDY    72  66  83 W7        29.61S
READING        PTSUNNY   74  66  76 W8        29.59S
LANCASTER      CLOUDY    74  67  78 W13       29.61S
COATESVILLE    MOSUNNY   73  70  88 NW15      29.62S
POTTSTOWN      PTSUNNY   74  67  78 VRB7      29.61S
BLUE BELL      PTSUNNY   75  68  78 W7        29.59S
DOYLESTOWN     MOSUNNY   73  68  84 W8        29.59R
WILLOW GROVE   NOT AVBL
NORTH PHILA    MOSUNNY   78  66  66 NW14G23   29.60R
PHILADELPHIA   MOSUNNY   78  67  68 W15       29.59S
$$


USA.gov is the U.S. government's official web portal to all federal, state and local government web resources and services.